When you browse on this site, cookies collect data to enhance your experience and personalize the content and advertising you see.
Visit our Privacy Policy to learn more. By continuing to use the site, you agree to this use of cookies and data.
  • Em Portugal
  • Lista de países
  • Para 7 dias
  • Temperatura da água
  • Mapas de satélite
  • Mapa do tempo
  • Widgets de tempo
  • user-avatar
    Iniciar Sessão

    Previsão horária em Trinidad

    Hoje, 16 Janeiro, Quarta-feira

    Tempo Temperatura Precipitação Vento Pressão Humidade
    00:00 +26°C° 0 mm 1 m/s 744 mmHg 96%
    01:00 +26°C° 0 mm 1 m/s 744 mmHg 96%
    02:00 +25°C° 0 mm 1 m/s 745 mmHg 96%
    03:00 +25°C° 0.2 mm 1 m/s 745 mmHg 96%
    04:00 +25°C° 0.2 mm 1 m/s 745 mmHg 96%
    05:00 +25°C° 0.2 mm 1 m/s 745 mmHg 96%
    06:00 +25°C° 0.7 mm 1 m/s 745 mmHg 94%
    07:00 +26°C° 0.7 mm 1 m/s 746 mmHg 92%
    08:00 +27°C° 0.7 mm 2 m/s 746 mmHg 90%
    09:00 +28°C° 2.3 mm 2 m/s 747 mmHg 88%
    10:00 +29°C° 2.3 mm 2 m/s 747 mmHg 86%
    11:00 +30°C° 2.3 mm 2 m/s 747 mmHg 83%
    12:00 +31°C° 0.9 mm 2 m/s 746 mmHg 81%
    13:00 +31°C° 0.9 mm 2 m/s 746 mmHg 79%
    14:00 +32°C° 0.9 mm 2 m/s 745 mmHg 77%
    15:00 +32°C° 0.8 mm 2 m/s 744 mmHg 77%
    16:00 +31°C° 0.8 mm 2 m/s 744 mmHg 77%
    17:00 +31°C° 0.8 mm 2 m/s 743 mmHg 77%
    18:00 +30°C° 1.5 mm 1 m/s 743 mmHg 83%
    19:00 +28°C° 1.5 mm 1 m/s 743 mmHg 88%
    20:00 +27°C° 1.5 mm 1 m/s 743 mmHg 94%
    21:00 +27°C° 0 mm 1 m/s 744 mmHg 94%
    22:00 +26°C° 0 mm 1 m/s 745 mmHg 95%
    23:00 +26°C° 0 mm 1 m/s 745 mmHg 96%

    Amanhã, 17 Janeiro, Quinta-feira

    Tempo Temperatura Precipitação Vento Pressão Humidade
    00:00 +26°C° 0.3 mm 1 m/s 745 mmHg 96%
    01:00 +25°C° 0.3 mm 1 m/s 744 mmHg 96%
    02:00 +25°C° 0.3 mm 1 m/s 744 mmHg 96%
    03:00 +25°C° 0.6 mm 1 m/s 744 mmHg 96%
    04:00 +25°C° 0.6 mm 1 m/s 744 mmHg 96%
    05:00 +25°C° 0.6 mm 1 m/s 744 mmHg 97%
    06:00 +25°C° 0 mm 1 m/s 745 mmHg 95%
    07:00 +26°C° 0 mm 1 m/s 746 mmHg 93%
    08:00 +27°C° 0 mm 2 m/s 746 mmHg 91%
    09:00 +29°C° 0.1 mm 2 m/s 746 mmHg 82%
    10:00 +31°C° 0.1 mm 2 m/s 746 mmHg 73%
    11:00 +34°C° 0.1 mm 3 m/s 746 mmHg 64%
    12:00 +34°C° 0 mm 3 m/s 745 mmHg 61%
    13:00 +35°C° 0 mm 3 m/s 745 mmHg 59%
    14:00 +36°C° 0 mm 3 m/s 744 mmHg 56%
    15:00 +35°C° 0.2 mm 3 m/s 743 mmHg 59%
    16:00 +35°C° 0.2 mm 2 m/s 742 mmHg 63%
    17:00 +34°C° 0.2 mm 2 m/s 741 mmHg 66%
    18:00 +32°C° 0 mm 2 m/s 742 mmHg 72%
    19:00 +30°C° 0 mm 1 m/s 742 mmHg 78%
    20:00 +28°C° 0 mm 1 m/s 743 mmHg 84%
    21:00 +28°C° 0 mm 1 m/s 743 mmHg 85%
    22:00 +28°C° 0 mm 1 m/s 744 mmHg 86%
    23:00 +27°C° 0 mm 1 m/s 744 mmHg 87%

    Depois de amanhã, 18 Janeiro, Sexta-feira

    Tempo Temperatura Precipitação Vento Pressão Humidade
    00:00 +27°C° 1.2 mm 1 m/s 744 mmHg 89%
    01:00 +26°C° 1.2 mm 1 m/s 744 mmHg 92%
    02:00 +26°C° 1.2 mm 1 m/s 744 mmHg 95%
    03:00 +26°C° 0 mm 1 m/s 743 mmHg 95%
    04:00 +26°C° 0 mm 1 m/s 743 mmHg 95%
    05:00 +25°C° 0 mm 1 m/s 743 mmHg 95%
    06:00 +26°C° 0 mm 1 m/s 744 mmHg 93%
    07:00 +27°C° 0 mm 1 m/s 745 mmHg 90%
    08:00 +28°C° 0 mm 1 m/s 745 mmHg 88%
    09:00 +30°C° 0 mm 1 m/s 746 mmHg 79%
    10:00 +32°C° 0 mm 2 m/s 746 mmHg 70%
    11:00 +35°C° 0 mm 2 m/s 746 mmHg 60%
    12:00 +35°C° 0.4 mm 2 m/s 745 mmHg 61%
    13:00 +35°C° 0.4 mm 2 m/s 744 mmHg 62%
    14:00 +35°C° 0.4 mm 2 m/s 743 mmHg 63%
    15:00 +35°C° 0 mm 2 m/s 742 mmHg 65%
    16:00 +35°C° 0 mm 2 m/s 742 mmHg 67%
    17:00 +34°C° 0 mm 2 m/s 741 mmHg 69%
    18:00 +32°C° 0 mm 1 m/s 742 mmHg 73%
    19:00 +30°C° 0 mm 1 m/s 742 mmHg 77%
    20:00 +29°C° 0 mm 1 m/s 743 mmHg 82%
    21:00 +29°C° 0 mm 1 m/s 743 mmHg 83%
    22:00 +28°C° 0 mm 1 m/s 743 mmHg 85%
    23:00 +28°C° 0 mm 1 m/s 744 mmHg 86%

    19 Janeiro, Sábado

    Tempo Temperatura Precipitação Vento Pressão Humidade
    00:00 +27°C° 0 mm 1 m/s 744 mmHg 87%
    01:00 +27°C° 0 mm 1 m/s 743 mmHg 88%
    02:00 +27°C° 0 mm 1 m/s 743 mmHg 89%
    03:00 +26°C° 1.7 mm 1 m/s 743 mmHg 92%
    04:00 +26°C° 1.7 mm 1 m/s 743 mmHg 94%
    05:00 +25°C° 1.7 mm 1 m/s 743 mmHg 97%
    06:00 +26°C° 1.6 mm 1 m/s 744 mmHg 96%
    07:00 +26°C° 1.6 mm 2 m/s 745 mmHg 94%
    08:00 +27°C° 1.6 mm 2 m/s 746 mmHg 93%
    09:00 +29°C° 0.2 mm 2 m/s 746 mmHg 84%
    10:00 +30°C° 0.2 mm 2 m/s 746 mmHg 76%
    11:00 +32°C° 0.2 mm 2 m/s 746 mmHg 67%
    12:00 +34°C° 0.1 mm 2 m/s 745 mmHg 62%
    13:00 +35°C° 0.1 mm 2 m/s 744 mmHg 57%
    14:00 +35°C° 0.1 mm 1 m/s 743 mmHg 52%
    15:00 +35°C° 0 mm 1 m/s 743 mmHg 53%
    16:00 +35°C° 0 mm 1 m/s 742 mmHg 54%
    17:00 +33°C° 0 mm 0 m/s 742 mmHg 54%
    18:00 +31°C° 0 mm 0 m/s 742 mmHg 60%
    19:00 +29°C° 0 mm 0 m/s 742 mmHg 65%
    20:00 +30°C° 0 mm 1 m/s 743 mmHg 70%
    21:00 +29°C° 0.1 mm 1 m/s 743 mmHg 74%
    22:00 +28°C° 0.1 mm 1 m/s 744 mmHg 78%
    23:00 +28°C° 0.1 mm 1 m/s 744 mmHg 82%

    20 Janeiro, Domingo

    Tempo Temperatura Precipitação Vento Pressão Humidade
    00:00 +27°C° 0.2 mm 1 m/s 744 mmHg 86%
    01:00 +26°C° 0.2 mm 1 m/s 743 mmHg 90%
    02:00 +26°C° 0.2 mm 1 m/s 743 mmHg 93%
    03:00 +26°C° 0.8 mm 1 m/s 743 mmHg 94%
    04:00 +25°C° 0.8 mm 1 m/s 743 mmHg 96%
    05:00 +25°C° 0.8 mm 1 m/s 743 mmHg 97%
    06:00 +25°C° 1.5 mm 1 m/s 744 mmHg 96%
    07:00 +26°C° 1.5 mm 1 m/s 745 mmHg 95%
    08:00 +27°C° 1.5 mm 1 m/s 745 mmHg 93%
    09:00 +28°C° 0.7 mm 1 m/s 745 mmHg 89%
    10:00 +30°C° 0.7 mm 1 m/s 745 mmHg 84%
    11:00 +32°C° 0.7 mm 1 m/s 745 mmHg 79%
    12:00 +32°C° 2.7 mm 1 m/s 744 mmHg 76%
    13:00 +32°C° 2.7 mm 1 m/s 744 mmHg 73%
    14:00 +31°C° 2.7 mm 0 m/s 743 mmHg 70%
    15:00 +31°C° 0 mm 0 m/s 743 mmHg 69%
    16:00 +33°C° 0 mm 1 m/s 742 mmHg 68%
    17:00 +32°C° 0 mm 1 m/s 741 mmHg 67%
    18:00 +31°C° 0 mm 1 m/s 741 mmHg 72%
    19:00 +29°C° 0 mm 1 m/s 742 mmHg 76%
    20:00 +28°C° 0 mm 1 m/s 742 mmHg 81%
    21:00 +27°C° 0 mm 1 m/s 742 mmHg 81%
    22:00 +27°C° 0 mm 1 m/s 743 mmHg 81%
    23:00 +27°C° 0 mm 1 m/s 743 mmHg 82%

    21 Janeiro, Segunda-feira

    Tempo Temperatura Precipitação Vento Pressão Humidade
    00:00 +27°C° 0 mm 1 m/s 743 mmHg 82%
    01:00 +26°C° 0 mm 1 m/s 742 mmHg 83%
    02:00 +26°C° 0 mm 1 m/s 742 mmHg 83%
    03:00 +24°C° 0 mm 0 m/s 742 mmHg 84%
    04:00 +24°C° 0 mm 0 m/s 742 mmHg 85%
    05:00 +23°C° 0 mm 0 m/s 742 mmHg 86%
    06:00 +24°C° 0 mm 0 m/s 743 mmHg 84%
    07:00 +25°C° 0 mm 0 m/s 743 mmHg 83%
    08:00 +28°C° 0 mm 1 m/s 744 mmHg 81%
    09:00 +29°C° 0 mm 1 m/s 744 mmHg 75%
    10:00 +31°C° 0 mm 1 m/s 744 mmHg 69%
    11:00 +33°C° 0 mm 1 m/s 744 mmHg 63%
    12:00 +34°C° 0.7 mm 2 m/s 744 mmHg 65%
    13:00 +34°C° 0.7 mm 2 m/s 743 mmHg 66%
    14:00 +34°C° 0.7 mm 3 m/s 742 mmHg 68%
    15:00 +34°C° 0 mm 3 m/s 742 mmHg 67%
    16:00 +34°C° 0 mm 3 m/s 741 mmHg 66%
    17:00 +34°C° 0 mm 3 m/s 741 mmHg 66%
    18:00 +31°C° 0 mm 2 m/s 741 mmHg 72%
    19:00 +30°C° 0 mm 2 m/s 742 mmHg 79%
    20:00 +28°C° 0 mm 1 m/s 742 mmHg 86%
    21:00 +28°C° 0 mm 1 m/s 743 mmHg 87%
    22:00 +27°C° 0 mm 2 m/s 744 mmHg 89%
    23:00 +27°C° 0 mm 2 m/s 744 mmHg 91%
    Mostrar mais